Location: Drvodelja
(42.9027°N, 21.8375°E)
Time: 06:41:30
(UTC+00:00)

Daily predictions for brighter satellites

Satellite Brightness Start Highest point End
(mag) Time Altitude Azimuth Time Altitude Azimuth Time Altitude Azimuth
Cosmos 1844 Rocket 2.7 16:06:53 10° S 16:12:28 66° ESE 16:18:04 10° NNE
SKYMED 2 4.1 16:10:23 10° NNE 16:14:28 38° E 16:18:30 10° SSE
SMAP 3.6 16:11:19 10° S 16:15:55 66° WSW 16:20:34 10° NNW
Unknown 4.2 16:12:22 10° WSW 16:16:27 55° NNW 16:20:32 10° NE
YAOGAN 1 3.4 16:14:06 10° SE 16:17:49 29° ENE 16:21:33 10° N
COBE Rocket 4.1 16:13:45 10° NNE 16:18:53 58° E 16:23:53 10° S
Unknown 4.3 16:15:50 10° WSW 16:19:52 51° NNW 16:23:56 10° NE
Unknown 4.4 16:17:30 10° WSW 16:21:33 50° NNW 16:25:36 10° NE
YAOGAN 6 3.2 16:19:19 10° SE 16:22:40 35° ENE 16:26:01 10° N
Unknown 4.4 16:19:12 10° WSW 16:23:13 48° NNW 16:27:15 10° NE
Unknown 4.4 16:20:53 10° WSW 16:24:53 47° NNW 16:28:55 10° NE
Cosmos 1939 Rocket 4.4 16:23:09 10° ESE 16:25:47 17° ENE 16:28:26 10° NNE
Lacrosse 5 rocket 1.2 16:24:18 10° NW 16:28:01 60° NE 16:31:57 10° ESE
Cosmos 1726 Rocket 3.6 16:26:18 10° S 16:30:38 60° E 16:34:58 10° NNE
Cosmos 1908 4.4 16:27:54 10° SE 16:30:55 22° E 16:33:56 10° NE
Cosmos 2278 Rocket 3.3 16:27:03 10° SSE 16:31:18 22° E 16:35:35 10° NE
CZ-4C R/B 3.3 16:25:00 10° NW 16:32:21 77° WSW 16:40:37 10° SSE
Meteor 1-21 Rocket 4.3 16:27:49 10° N 16:33:44 88° E 16:39:31 10° S
Cosmos 1844 3.7 16:29:20 10° SSW 16:35:01 78° ESE 16:40:49 10° NNE
Cosmos 1470 4.2 16:33:05 10° SSW 16:36:53 43° WNW 16:40:42 10° N
Cosmos 2228 3.0 16:35:53 10° S 16:40:16 82° E 16:44:39 10° N
ATLAS 5 CENTAUR R/B 2.8 16:37:11 10° WSW 16:41:13 41° NW 16:45:45 10° NNE
Cosmos 1328 4.3 16:37:45 10° N 16:41:30 38° ENE 16:45:11 10° SSE
Okean-O 3.6 16:37:24 10° S 16:41:43 52° W 16:46:04 10° NNW
Shenzhou-11 Module 1.7 16:39:56 10° WSW 16:42:42 75° S 16:44:29 19° E
Cosmos 2239 Rocket 4.4 16:36:43 10° N 16:42:55 82° E 16:49:03 10° S
Cosmos 2058 Rocket 3.1 16:38:52 10° S 16:43:05 52° E 16:47:19 10° NNE
Envisat 3.1 16:38:51 10° SSE 16:43:56 85° WSW 16:49:03 10° NNW
CZ-4 R/B 1.4 16:42:11 10° SSE 16:46:18 76° ENE 16:50:31 10° N
CZ-4 R/B 4.4 16:44:08 10° SSE 16:48:14 84° ENE 16:52:23 10° N
Cosmos 1821 Rocket 4.1 16:43:42 10° N 16:49:50 79° W 16:55:58 10° S
Cosmos 1605 Rocket 4.3 16:44:06 10° N 16:50:00 44° ENE 16:55:48 10° SSE
Cosmos 921 Rocket 3.0 16:46:39 10° SSW 16:51:10 83° ESE 16:55:40 10° NNE
OAO 3 Rocket 4.4 16:49:01 10° SW 16:53:21 31° S 16:56:38 15° ESE
CSL-04 Rocket 3.7 16:52:03 10° SSE 16:57:36 79° ENE 17:03:07 10° NNW
BREEZE-M DEB (TANK) 2.8 16:53:09 10° SW 16:58:30 53° SSE 16:59:46 27° E
Cosmos 2084 4.5 16:54:30 10° SW 16:58:54 49° NW 17:03:16 10° NNE
Cosmos 1356 3.3 16:57:10 10° S 17:00:34 70° E 17:04:00 10° NNE
Abrixas rocket 3.1 16:57:56 10° SSW 17:00:35 27° SE 17:01:06 25° SE
COSMO-SKYMED 1 3.1 16:58:18 10° N 17:02:37 63° WNW 17:06:53 10° SSW
Cosmos 1934 Rocket 4.0 16:56:33 10° N 17:02:54 84° E 17:09:17 10° S
NOAA 11 4.3 16:57:40 10° SE 17:02:55 51° ENE 17:08:11 10° N
Unknown 4.4 17:01:30 10° NNW 17:04:05 23° NNE 17:04:44 21° NE
Cosmos 1535 Rocket 4.4 16:58:54 10° N 17:05:09 88° E 17:11:17 10° S
OAO 2 Rocket 4.5 17:02:02 10° WSW 17:06:48 35° S 17:10:04 18° SE
ASTEX 1 3.7 17:02:06 10° N 17:07:01 70° W 17:11:57 10° SSW
USA 116 3.2 17:04:49 10° N 17:07:58 81° WNW 17:11:16 10° SSW
CZ-2D R/B 3.2 17:09:00 10° SSE 17:12:46 62° ENE 17:16:37 10° N
Cosmos 1271 Rocket 4.4 17:09:41 10° NNW 17:13:24 38° W 17:17:05 10° SSW
Cosmos 1833 Rocket 3.2 17:10:43 10° N 17:15:58 38° ENE 17:18:08 28° ESE
Cosmos 1726 2.5 17:13:53 10° SSW 17:17:30 63° W 17:21:09 10° N
SL-4 R/B 2.8 17:14:54 10° WNW 17:18:29 40° SW 17:20:41 19° SSE
USA 238 DEB 4.1 17:13:43 10° S 17:19:47 39° ESE 17:23:37 21° ENE
USA 238 4.1 17:13:51 10° S 17:19:54 38° ESE 17:23:39 22° ENE
EO 1 Delta rocket 3.9 17:18:03 10° S 17:22:42 80° W 17:27:28 10° NNW
Ariane Rocket 2.9 17:21:27 10° SSE 17:26:30 70° ENE 17:31:35 10° N
Cosmos 1242 Rocket 3.7 17:26:17 10° NNW 17:29:49 44° W 17:33:19 10° SSW
USA 234 4.2 17:30:03 25° SE 17:30:03 25° SE 17:35:12 10° S
Cosmos 2100 Rocket 4.4 17:24:38 10° N 17:30:21 37° ENE 17:31:39 34° E
Cosmos 1703 3.8 17:28:19 10° NNW 17:32:12 58° W 17:36:02 10° S
Unknown 3.6 17:29:58 10° NW 17:31:50 40° NW 17:31:50 40° NW
Cosmos 2082 Rocket 2.7 17:30:24 10° N 17:35:44 38° ENE 17:36:26 37° ENE
COSMOS 2406 3.4 17:31:22 10° NNW 17:37:08 73° WSW 17:42:50 10° SSE
SPOT 3 Rocket 4.2 17:38:33 35° ENE 17:38:33 35° ENE 17:42:50 10° N
Cosmos 1153 Rocket 4.3 17:37:02 10° N 17:43:12 74° E 17:49:19 10° SSE
Lacrosse 5 2.7 17:39:48 10° NW 17:44:23 33° NNE 17:44:44 32° NE
Cosmos 1812 Rocket 3.4 17:40:34 10° S 17:44:56 71° E 17:49:23 10° NNE
NOSS 3-2 (A) 3.5 17:40:50 10° S 17:46:13 45° ESE 17:46:24 45° ESE
Cosmos 1777 Rocket 4.1 17:43:42 10° NNW 17:48:56 76° WSW 17:52:10 23° S
MOS 1 4.1 17:46:09 29° SSE 17:49:11 73° ENE 17:54:51 10° N
IRS-1A Rocket 4.2 17:44:24 10° SSE 17:49:55 85° WSW 17:55:28 10° NNW
Cosmos 839 Rocket 4.5 17:44:10 10° NW 17:50:21 66° WSW 17:56:53 13° SSE
Cosmos 1461 3.8 17:48:57 10° NNW 17:51:48 36° N 17:51:48 36° N
HJ-1C 4.4 17:55:34 43° NW 17:55:34 43° NW 17:58:05 10° NNW
H-2A R/B 2.8 17:57:23 38° NE 17:57:23 38° NE 18:01:19 10° N
Cosmos 1939 Rocket 4.2 17:56:40 10° SSW 18:00:23 39° W 18:04:11 10° NNW
Cosmos 1076 Rocket 4.1 17:59:06 10° N 18:02:16 47° N 18:02:16 47° N
Cosmos 2061 Rocket 4.4 17:59:43 10° N 18:04:36 42° NE 18:04:36 42° NE
Lacrosse 5 rocket 3.7 18:04:18 10° W 18:06:51 17° SW 18:08:33 13° SSW
Cosmos 2278 Rocket 2.8 18:09:24 10° SW 18:14:57 55° WNW 18:20:32 10° NNE
CZ-2C R/B 4.4 18:20:56 32° NNE 18:20:56 32° NNE 18:24:17 10° N
Cosmos 1459 Rocket 4.0 18:28:34 10° N 18:34:47 78° W 18:35:04 76° SW
ADEOS Rocket 3.4 18:31:57 10° NNE 18:39:45 87° WNW 18:46:59 10° SSW
Cosmos 1802 Rocket 4.3 18:44:02 10° NNW 18:49:49 67° NW 18:49:49 67° NW
ARGOS 4.4 18:57:06 37° NW 18:57:06 37° NW 19:00:25 10° NNW
Cosmos 1833 Rocket 4.1 18:54:50 10° NW 18:59:46 32° WSW 18:59:52 32° WSW
USA 238 DEB 4.4 19:04:07 10° WSW 19:10:35 48° NW 19:11:09 47° NNW
USA 238 4.4 19:04:13 10° WSW 19:10:41 48° NW 19:11:10 47° NNW
Cosmos 2082 Rocket 3.9 19:14:40 10° NW 19:18:18 29° WNW 19:18:18 29° WNW
Lacrosse 5 4.4 19:22:38 10° NW 19:23:56 18° WNW 19:23:56 18° WNW
H-2A R/B 4.5 19:38:01 19° WNW 19:38:01 19° WNW 19:40:12 10° NW
